Regional Weather Roundup
Issued by NWS

Home | Current Version | Previous Version | Text Only | Print | Product List | Glossary Off
Versions: 1 2 3 4 5 6 7 8 9 10 11 12 13 14 15 16 17 18 19 20 21 22 23 24 25 26 27 28 29 30 31 32 33 34 35 36 37 38 39 40 41 42 43 44 45 46 47 48 49 50

717
ASUS45 KSLC 200110
RWRUT

UTAH REGIONAL WEATHER ROUNDUP
NATIONAL WEATHER SERVICE SALT LAKE CITY UT
600 PM MST SUN FEB 19 2017

UTZ001>011-023>025-200200-

NORTHERN UTAH

CITY           SKY/WX    TMP DP  RH WIND       PRES   REMARKS
BRIGHAM CITY     N/A     50  34  54 N7        29.79R
HILL AFB       MOCLDY    47  33  57 SW5       29.77R
LOGAN          CLOUDY    47  36  65 CALM      29.78R
OGDEN          MOCLDY    49  33  54 CALM      29.76R
SALT LAKE CITY MOCLDY    49  38  65 S5        29.77R
TOOELE VALLEY  MOCLDY    50  37  62 SE3       29.78R
WENDOVER       CLEAR     52  25  35 W12       29.75R
HEBER CITY     MOCLDY    39  36  87 CALM      29.81R
WEST JORDAN    MOCLDY    48  46  94 S5        29.79R

$$

UTZ011>015-024>027-200200-

CENTRAL/NORTHEAST UTAH

CITY           SKY/WX    TMP DP  RH WIND       PRES   REMARKS
PROVO AIRPORT  PTCLDY    46  37  71 E5        29.81R
MOAB/CANYONLAN CLOUDY    46  43  89 E3        29.80R
DELTA          PTCLDY    50  36  57 S18G24    29.78R
PRICE          CLOUDY    36  36 100 NE3       29.83R
RICHFIELD      PTCLDY    48  34  57 S16       29.84R
ROOSEVELT      CLOUDY    43  39  87 E8        29.80R
VERNAL         LGT RAIN  38  37  97 NE5       29.80R WCI  34

$$

UTZ013>016-019>022-027-200200-

SOUTHERN UTAH

CITY           SKY/WX    TMP DP  RH WIND       PRES   REMARKS
BRYCE CANYON   MOCLDY    37  29  72 W8        29.89R WCI  31
CEDAR CITY     PTCLDY    42  33  70 SW17      29.88R
MILFORD          N/A     47  36  65 S18G28    29.83R
ST GEORGE      CLOUDY    54  42  64 W9        29.92R
HANKSVILLE     MOCLDY    46  39  76 SE3       29.84R
KANAB          PTCLDY    45  37  76 SW6       29.96R
BLANDING       CLOUDY    40  35  82 SW9       29.94R WCI  34

$$

REGIONAL REPORTS     COLORADO/ARIZONA

CITY           SKY/WX    TMP DP  RH WIND       PRES   REMARKS
CRAIG, CO      LGT RAIN  35  32  88 W9        29.80R FOG     WCI  28
GRAND JUNCTION CLOUDY    43  42  97 N13       29.82R
RIFLE, CO      CLOUDY    40  35  83 W17       29.80R WCI  31
MONTROSE, CO   CLOUDY    45  30  55 CALM      29.84R
CORTEZ, CO     CLOUDY    40  36  86 SW9       29.88R WCI  34
COLORADO CITY  CLOUDY    46  39  76 CALM      29.96R
PAGE, AZ       CLOUDY    51  37  58 CALM      29.88R
GRAND CANYON   CLOUDY    38  38 100 W7        29.95R WCI  33
KINGMAN, AZ    CLOUDY    51  34  52 SW14      29.95R
FLAGSTAFF, AZ  CLOUDY    35  33  92 W9        29.97R WCI  28

$$

REGIONAL REPORTS    NEVADA/IDAHO/WYOMING

CITY           SKY/WX    TMP DP  RH WIND       PRES   REMARKS
LAS VEGAS, NV  PTCLDY    60  37  42 S8        29.87R
ELY, NY        PTCLDY    45  28  51 S7        29.83R
ELKO, NV       CLEAR     48  24  39 SW8       29.76R
POCATELLO, ID  PTCLDY    38  34  85 SW7       29.78R WCI  33
BURLEY, ID     CLOUDY    45  32  60 N3        29.75R
FORT BRIDGER,    N/A     33  32  96 W10       29.83R WCI  25
EVANSTON, WY   CLOUDY    31  26  82 S7        29.81R WCI  24
ROCK SPRINGS,  CLOUDY    35  31  85 W13       29.78R WCI  26
KEMMERER, WY     N/A     28  25  86 SW12      29.78R WCI  18

$$




USA.gov is the U.S. government's official web portal to all federal, state and local government web resources and services.